This demonstration page uses our WeatherBlox Daily Observations layout. Learn more.

Left ArrowRight Arrow

38.89511, -77.03637

Hourly Observations for February 4, 2017

Temp ( °F °C ) Dew Point ( °F °C ) Humidity (%) Winds ( mph kmh ) Pressure ( in mb ) Visibility ( mi km ) Precip ( " mm )
12:52 am 00:52 Mostly Clear 29 -1.7 10 -12.2 45 45 NNW 15 24 30.37 1029 10 16 0.00 0.00
1:52 am 01:52 Clear 28 -2.2 6 -14.4 39 39 NNW 10 17 30.39 1029 10 16 0.00 0.00
2:52 am 02:52 Clear 28 -2.2 6 -14.4 39 39 NNW 18 30 30.40 1029 10 16 0.00 0.00
3:52 am 03:52 Clear 27 -2.8 7 -13.9 43 43 NNW 10 17 30.41 1030 10 16 0.00 0.00
4:52 am 04:52 Clear 26 -3.3 8 -13.3 46 46 NNW 9 15 30.43 1031 10 16 0.00 0.00
5:52 am 05:52 Clear 25 -3.9 8 -13.3 48 48 NNW 7 11 30.46 1031 10 16 0.00 0.00
6:52 am 06:52 Clear 25 -3.9 9 -12.8 50 50 NNW 7 11 30.49 1032 10 16 0.00 0.00
7:52 am 07:52 Sunny 27 -2.8 9 -12.8 46 46 NNW 9 15 30.50 1033 10 16 0.00 0.00
8:52 am 08:52 Sunny 29 -1.7 9 -12.8 43 43 NW 8 13 30.53 1034 10 16 0.00 0.00
9:52 am 09:52 Sunny 31 -0.6 8 -13.3 38 38 NW 7 11 30.53 1034 10 16 0.00 0.00
10:52 am 10:52 Sunny 33 0.6 6 -14.4 32 32 WNW 10 17 30.52 1034 10 16 0.00 0.00
11:52 am 11:52 Mostly Sunny 36 2.2 3 -16.1 25 25 W 8 13 30.50 1033 10 16 0.00 0.00
12:52 pm 12:52 Mostly Sunny 37 2.8 4 -15.6 25 25 W 9 15 30.45 1031 10 16 0.00 0.00
1:52 pm 13:52 Partly Cloudy 39 3.9 3 -16.1 22 22 WNW 9 15 30.42 1030 10 16 0.00 0.00
2:52 pm 14:52 Partly Cloudy 40 4.4 1 -17.2 19 19 WNW 10 17 30.40 1029 10 16 0.00 0.00
3:52 pm 15:52 Partly Cloudy 40 4.4 1 -17.2 19 19 W 10 17 30.40 1029 10 16 0.00 0.00
4:52 pm 16:52 Mostly Cloudy 39 3.9 1 -17.2 20 20 W 8 13 30.39 1029 10 16 0.00 0.00
5:52 pm 17:52 Cloudy 37 2.8 6 -14.4 27 27 S 10 17 30.39 1029 10 16 0.00 0.00
6:28 pm 18:28 Mostly Cloudy 37 3 7 -14 28 28 S 9 15 30.36 1028 10 16 0.00 0.00
6:52 pm 18:52 Mostly Cloudy 36 2.2 11 -11.7 35 35 S 10 17 30.35 1028 10 16 0.00 0.00
7:52 pm 19:52 Mostly Cloudy 35 1.7 9 -12.8 34 34 S 10 17 30.34 1028 10 16 0.00 0.00
8:52 pm 20:52 Mostly Cloudy 34 1.1 12 -11.1 40 40 S 9 15 30.35 1028 10 16 0.00 0.00
9:52 pm 21:52 Mostly Cloudy 33 0.6 16 -8.9 49 49 S 9 15 30.32 1027 10 16 0.00 0.00
10:52 pm 22:52 Mostly Cloudy 34 1.1 14 -10 44 44 S 10 17 30.30 1026 10 16 0.00 0.00
11:52 pm 23:52 Cloudy 34 1.1 13 -10.6 42 42 SSW 9 15 30.29 1026 10 16 0.00 0.00

Powered by AerisWeather